Time,TemperatureF,DewpointF,PressureIn,WindDirection,WindDirectionDegrees,WindSpeedMPH,WindSpeedGustMPH,Humidity,HourlyPrecipIn,Conditions,Clouds,dailyrainin,SoftwareType,DateUTC
2013-01-01 00:00:00,38.7,38.1,29.32,North,354,3.0,3.6,98,0.00,,,0.00,WSDL version 426,2013-01-01 06:00:00,
2013-01-01 00:05:00,38.7,38.1,29.32,NNW,338,2.4,3.8,98,0.00,,,0.00,WSDL version 426,2013-01-01 06:05:00,
2013-01-01 00:10:00,38.7,38.1,29.32,NNW,338,1.8,3.8,98,0.00,,,0.00,WSDL version 426,2013-01-01 06:10:00,
2013-01-01 00:15:00,38.5,37.9,29.29,NNW,338,3.3,4.3,98,0.00,,,0.00,WSDL version 426,2013-01-01 06:15:00,
2013-01-01 00:20:00,38.5,38.2,29.29,NNW,338,4.1,5.8,99,0.00,,,0.00,WSDL version 426,2013-01-01 06:20:00,
2013-01-01 00:25:00,38.5,38.2,29.29,North,3,1.5,5.8,99,0.00,,,0.00,WSDL version 426,2013-01-01 06:25:00,
2013-01-01 00:30:00,38.5,38.2,29.29,NNE,15,2.6,4.9,99,0.00,,,0.00,WSDL version 426,2013-01-01 06:30:00,
2013-01-01 00:35:00,38.5,38.2,29.29,NNW,338,5.6,6.7,99,0.00,,,0.00,WSDL version 426,2013-01-01 06:35:00,
2013-01-01 00:40:00,38.5,38.3,29.29,NNW,348,4.7,7.4,100,0.00,,,0.00,WSDL version 426,2013-01-01 06:40:00,
2013-01-01 00:45:00,38.5,38.5,29.29,North,349,5.7,7.6,100,0.00,,,0.00,WSDL version 426,2013-01-01 06:45:00,
2013-01-01 00:50:00,38.5,38.5,29.29,NNW,338,4.8,7.6,100,0.00,,,0.00,WSDL version 426,2013-01-01 06:50:00,
2013-01-01 00:55:00,38.5,38.5,29.29,NNW,338,6.2,7.8,100,0.00,,,0.00,WSDL version 426,2013-01-01 06:55:00,
2013-01-01 01:00:00,38.5,38.5,29.29,North,350,6.6,8.7,100,0.00,,,0.00,WSDL version 426,2013-01-01 07:00:00,
2013-01-01 01:05:00,38.5,38.5,29.29,North,358,5.9,8.7,100,0.00,,,0.00,WSDL version 426,2013-01-01 07:05:00,
2013-01-01 01:10:00,38.3,38.3,29.29,North,3,5.2,8.5,100,0.00,,,0.00,WSDL version 426,2013-01-01 07:10:00,
2013-01-01 01:15:00,38.3,38.3,29.29,North,350,3.7,7.8,100,0.00,,,0.00,WSDL version 426,2013-01-01 07:15:00,
2013-01-01 01:20:00,38.3,38.3,29.29,North,11,3.1,5.8,100,0.00,,,0.00,WSDL version 426,2013-01-01 07:20:00,
2013-01-01 01:25:00,38.5,38.5,29.29,NE,34,3.3,6.3,100,0.00,,,0.00,WSDL version 426,2013-01-01 07:25:00,
2013-01-01 01:30:00,38.5,38.5,29.29,NNE,13,2.7,6.3,100,0.00,,,0.00,WSDL version 426,2013-01-01 07:30:00,
2013-01-01 01:35:00,38.5,38.5,29.29,North,3,3.4,4.9,100,0.00,,,0.00,WSDL version 426,2013-01-01 07:35:00,
2013-01-01 01:40:00,38.5,38.5,29.29,North,355,2.2,4.7,100,0.00,,,0.00,WSDL version 426,2013-01-01 07:40:00,
2013-01-01 01:45:00,38.5,38.5,29.29,NNW,344,2.6,3.6,100,0.00,,,0.00,WSDL version 426,2013-01-01 07:45:00,
2013-01-01 01:50:00,38.5,38.5,29.29,North,355,2.1,3.4,100,0.00,,,0.00,WSDL version 426,2013-01-01 07:50:00,
2013-01-01 01:55:00,38.5,38.5,29.29,NNW,346,2.9,4.3,100,0.00,,,0.00,WSDL version 426,2013-01-01 07:55:00,
2013-01-01 02:00:00,38.5,38.4,29.29,North,355,3.1,5.6,99,0.00,,,0.00,WSDL version 426,2013-01-01 08:00:00,
2013-01-01 02:05:00,38.5,38.2,29.29,North,353,4.0,6.3,99,0.00,,,0.00,WSDL version 426,2013-01-01 08:05:00,
2013-01-01 02:10:00,38.5,38.2,29.29,North,360,4.5,8.5,99,0.00,,,0.00,WSDL version 426,2013-01-01 08:10:00,
2013-01-01 02:15:00,38.5,38.2,29.29,NNW,343,3.8,8.5,99,0.00,,,0.00,WSDL version 426,2013-01-01 08:15:00,
2013-01-01 02:20:00,38.3,38.0,29.29,NNW,338,4.4,6.0,99,0.00,,,0.00,WSDL version 426,2013-01-01 08:20:00,
2013-01-01 02:25:00,38.3,38.0,29.29,North,353,3.7,6.0,99,0.00,,,0.00,WSDL version 426,2013-01-01 08:25:00,
2013-01-01 02:30:00,38.3,37.9,29.32,North,349,5.0,6.9,98,0.00,,,0.00,WSDL version 426,2013-01-01 08:30:00,
2013-01-01 02:35:00,38.1,37.5,29.32,North,352,4.1,6.9,98,0.00,,,0.00,WSDL version 426,2013-01-01 08:35:00,
2013-01-01 02:40:00,38.1,37.5,29.32,North,5,4.3,8.5,98,0.00,,,0.00,WSDL version 426,2013-01-01 08:40:00,
2013-01-01 02:45:00,38.0,37.3,29.32,NNW,346,6.3,10.1,97,0.00,,,0.00,WSDL version 426,2013-01-01 08:45:00,
2013-01-01 02:50:00,37.8,36.9,29.32,NNE,15,5.1,10.1,96,0.00,,,0.00,WSDL version 426,2013-01-01 08:50:00,
2013-01-01 02:55:00,37.8,36.6,29.32,North,360,3.9,10.1,96,0.00,,,0.00,WSDL version 426,2013-01-01 08:55:00,
2013-01-01 03:00:00,37.6,36.4,29.32,North,352,3.6,5.4,96,0.00,,,0.00,WSDL version 426,2013-01-01 09:00:00,
2013-01-01 03:06:00,37.6,36.4,29.32,NNE,14,5.6,8.7,96,0.00,,,0.00,WSDL version 426,2013-01-01 09:06:00,
2013-01-01 03:11:00,37.5,36.4,29.32,North,8,4.7,8.7,96,0.00,,,0.00,WSDL version 426,2013-01-01 09:11:00,
2013-01-01 03:16:00,37.5,36.3,29.32,NNW,346,4.9,8.1,96,0.00,,,0.00,WSDL version 426,2013-01-01 09:16:00,
2013-01-01 03:21:00,37.6,36.4,29.32,NNW,340,5.4,7.4,96,0.00,,,0.00,WSDL version 426,2013-01-01 09:21:00,
2013-01-01 03:26:00,37.6,36.4,29.32,NNW,333,4.0,7.4,96,0.00,,,0.00,WSDL version 426,2013-01-01 09:26:00,
2013-01-01 03:31:00,37.6,36.1,29.32,NNW,338,4.0,6.5,94,0.00,,,0.00,WSDL version 426,2013-01-01 09:31:00,
2013-01-01 03:36:00,37.6,36.1,29.32,NNW,345,3.8,5.8,94,0.00,,,0.00,WSDL version 426,2013-01-01 09:36:00,
2013-01-01 03:41:00,37.6,36.1,29.32,NNW,346,2.9,5.8,94,0.00,,,0.00,WSDL version 426,2013-01-01 09:41:00,
2013-01-01 03:46:00,37.6,36.1,29.35,North,349,4.8,8.5,94,0.00,,,0.00,WSDL version 426,2013-01-01 09:46:00,
2013-01-01 03:51:00,37.6,35.9,29.35,NNW,346,5.5,8.5,93,0.00,,,0.00,WSDL version 426,2013-01-01 09:51:00,
2013-01-01 03:56:00,37.5,35.8,29.35,NNW,338,5.6,10.3,93,0.00,,,0.00,WSDL version 426,2013-01-01 09:56:00,
2013-01-01 04:02:00,37.4,35.4,29.35,NNW,346,6.6,10.5,92,0.00,,,0.00,WSDL version 426,2013-01-01 10:02:00,
2013-01-01 04:07:00,37.3,35.2,29.35,North,5,5.5,8.7,92,0.00,,,0.00,WSDL version 426,2013-01-01 10:07:00,
2013-01-01 04:12:00,37.0,35.0,29.35,North,360,6.0,9.8,92,0.00,,,0.00,WSDL version 426,2013-01-01 10:12:00,
2013-01-01 04:17:00,36.9,34.8,29.35,NNW,340,6.4,9.8,92,0.00,,,0.00,WSDL version 426,2013-01-01 10:17:00,
2013-01-01 04:22:00,36.7,34.8,29.35,NNW,345,6.5,9.4,93,0.00,,,0.00,WSDL version 426,2013-01-01 10:22:00,
2013-01-01 04:27:00,36.5,34.8,29.35,NNW,345,5.4,8.7,94,0.00,,,0.00,WSDL version 426,2013-01-01 10:27:00,
2013-01-01 04:32:00,36.4,35.0,29.35,NNW,348,5.7,8.7,94,0.00,,,0.00,WSDL version 426,2013-01-01 10:32:00,
2013-01-01 04:37:00,36.3,34.9,29.35,North,349,5.2,7.4,94,0.00,,,0.00,WSDL version 426,2013-01-01 10:37:00,
2013-01-01 04:42:00,36.3,35.1,29.38,NNW,343,3.9,6.5,96,0.00,,,0.00,WSDL version 426,2013-01-01 10:42:00,
2013-01-01 04:47:00,36.3,35.2,29.38,North,357,4.4,7.8,96,0.00,,,0.00,WSDL version 426,2013-01-01 10:47:00,
2013-01-01 04:52:00,36.3,35.2,29.38,North,8,5.1,7.8,96,0.00,,,0.00,WSDL version 426,2013-01-01 10:52:00,
2013-01-01 04:57:00,36.3,35.2,29.38,North,3,4.1,7.4,96,0.00,,,0.00,WSDL version 426,2013-01-01 10:57:00,
2013-01-01 05:02:00,36.1,35.0,29.38,NNE,14,5.8,8.1,96,0.00,,,0.00,WSDL version 426,2013-01-01 11:02:00,
2013-01-01 05:07:00,36.1,35.3,29.38,NNE,13,6.0,8.5,97,0.00,,,0.00,WSDL version 426,2013-01-01 11:07:00,
2013-01-01 05:12:00,36.1,35.3,29.35,NNE,14,4.5,8.5,97,0.00,,,0.00,WSDL version 426,2013-01-01 11:12:00,
2013-01-01 05:17:00,36.1,35.3,29.35,North,3,4.2,7.6,97,0.00,,,0.00,WSDL version 426,2013-01-01 11:17:00,
2013-01-01 05:23:00,36.1,35.2,29.35,North,352,3.9,7.4,97,0.00,,,0.00,WSDL version 426,2013-01-01 11:23:00,
2013-01-01 05:29:00,36.0,35.1,29.38,North,354,3.4,6.5,97,0.00,,,0.00,WSDL version 426,2013-01-01 11:29:00,
2013-01-01 05:34:00,36.0,35.1,29.38,North,360,4.0,7.4,97,0.00,,,0.00,WSDL version 426,2013-01-01 11:34:00,
2013-01-01 05:39:00,36.0,35.2,29.38,NNW,343,3.9,7.4,97,0.00,,,0.00,WSDL version 426,2013-01-01 11:39:00,
2013-01-01 05:45:00,36.1,35.3,29.38,NNW,338,4.9,7.6,97,0.00,,,0.00,WSDL version 426,2013-01-01 11:45:00,
2013-01-01 05:50:00,36.1,35.2,29.38,North,354,4.9,8.5,97,0.00,,,0.00,WSDL version 426,2013-01-01 11:50:00,
2013-01-01 05:55:00,36.0,35.1,29.38,North,350,4.9,8.5,97,0.00,,,0.00,WSDL version 426,2013-01-01 11:55:00,
2013-01-01 06:01:00,36.0,35.1,29.38,NNW,338,6.3,8.5,97,0.00,,,0.00,WSDL version 426,2013-01-01 12:01:00,
2013-01-01 06:06:00,36.0,35.1,29.38,NNW,343,4.3,8.5,97,0.00,,,0.00,WSDL version 426,2013-01-01 12:06:00,
2013-01-01 06:11:00,35.8,35.0,29.38,NNW,343,5.2,8.1,97,0.00,,,0.00,WSDL version 426,2013-01-01 12:11:00,
2013-01-01 06:17:00,35.8,34.9,29.38,NNW,335,5.3,8.1,97,0.00,,,0.00,WSDL version 426,2013-01-01 12:17:00,
2013-01-01 06:22:00,35.8,34.9,29.38,NNW,340,3.2,7.6,97,0.00,,,0.00,WSDL version 426,2013-01-01 12:22:00,
2013-01-01 06:27:00,35.8,34.9,29.38,North,353,4.8,6.3,97,0.00,,,0.00,WSDL version 426,2013-01-01 12:27:00,
2013-01-01 06:32:00,35.8,34.9,29.38,North,352,5.4,8.5,97,0.00,,,0.00,WSDL version 426,2013-01-01 12:32:00,
2013-01-01 06:37:00,35.8,34.9,29.38,NNW,333,4.9,8.5,97,0.00,,,0.00,WSDL version 426,2013-01-01 12:37:00,
2013-01-01 06:43:00,35.7,34.7,29.41,NNW,335,8.4,11.2,96,0.00,,,0.00,WSDL version 426,2013-01-01 12:43:00,
2013-01-01 06:48:00,35.6,34.5,29.41,NNW,343,6.2,11.2,96,0.00,,,0.00,WSDL version 426,2013-01-01 12:48:00,
2013-01-01 06:53:00,35.6,34.5,29.41,NNW,346,6.5,8.7,96,0.00,,,0.00,WSDL version 426,2013-01-01 12:53:00,
2013-01-01 06:58:00,35.6,34.4,29.38,NNW,335,7.3,12.1,96,0.00,,,0.00,WSDL version 426,2013-01-01 12:58:00,
2013-01-01 07:03:00,35.4,34.2,29.38,NNW,338,7.3,12.3,96,0.00,,,0.00,WSDL version 426,2013-01-01 13:03:00,
2013-01-01 07:08:00,35.2,34.0,29.38,NNW,340,6.3,12.3,96,0.00,,,0.00,WSDL version 426,2013-01-01 13:08:00,
2013-01-01 07:13:00,35.1,33.9,29.38,NNW,346,9.2,12.5,96,0.00,,,0.00,WSDL version 426,2013-01-01 13:13:00,
2013-01-01 07:18:00,34.9,33.7,29.38,NNW,329,6.3,12.5,96,0.00,,,0.00,WSDL version 426,2013-01-01 13:18:00,
2013-01-01 07:23:00,34.8,33.6,29.38,NNW,340,8.0,10.3,96,0.00,,,0.00,WSDL version 426,2013-01-01 13:23:00,
2013-01-01 07:28:00,34.5,33.4,29.38,NNW,346,8.1,12.3,96,0.00,,,0.00,WSDL version 426,2013-01-01 13:28:00,
2013-01-01 07:33:00,34.5,33.4,29.38,NNW,346,6.3,12.3,96,0.00,,,0.00,WSDL version 426,2013-01-01 13:33:00,
2013-01-01 07:38:00,34.5,33.6,29.38,NNW,345,6.7,10.3,97,0.00,,,0.00,WSDL version 426,2013-01-01 13:38:00,
2013-01-01 07:43:00,34.3,33.5,29.41,NNW,346,7.8,10.7,97,0.00,,,0.00,WSDL version 426,2013-01-01 13:43:00,
2013-01-01 07:48:00,34.3,33.1,29.41,North,353,6.7,10.7,96,0.00,,,0.00,WSDL version 426,2013-01-01 13:48:00,
2013-01-01 07:53:00,34.1,33.0,29.41,North,360,7.7,11.9,96,0.00,,,0.00,WSDL version 426,2013-01-01 13:53:00,
2013-01-01 07:58:00,34.0,32.8,29.41,NNW,338,4.7,11.9,96,0.00,,,0.00,WSDL version 426,2013-01-01 13:58:00,
2013-01-01 08:03:00,34.0,32.8,29.41,North,8,4.3,7.6,96,0.00,,,0.00,WSDL version 426,2013-01-01 14:03:00,
2013-01-01 08:08:00,34.0,32.8,29.41,North,350,4.9,7.2,96,0.00,,,0.00,WSDL version 426,2013-01-01 14:08:00,
2013-01-01 08:13:00,33.9,32.8,29.44,NNW,335,5.5,12.8,96,0.00,,,0.00,WSDL version 426,2013-01-01 14:13:00,
2013-01-01 08:18:00,33.7,32.6,29.44,NNW,346,8.0,12.8,96,0.00,,,0.00,WSDL version 426,2013-01-01 14:18:00,
2013-01-01 08:23:00,33.4,32.0,29.44,NNW,335,8.5,11.4,94,0.00,,,0.00,WSDL version 426,2013-01-01 14:23:00,
2013-01-01 08:28:00,33.1,31.7,29.44,NNW,341,7.5,10.5,94,0.00,,,0.00,WSDL version 426,2013-01-01 14:28:00,
2013-01-01 08:33:00,32.9,31.4,29.44,NNW,343,7.8,10.7,94,0.00,,,0.00,WSDL version 426,2013-01-01 14:33:00,
2013-01-01 08:38:00,32.7,31.4,29.44,NNW,334,6.5,10.7,96,0.00,,,0.00,WSDL version 426,2013-01-01 14:38:00,
2013-01-01 08:43:00,32.6,31.5,29.44,NNW,335,7.3,10.5,96,0.00,,,0.00,WSDL version 426,2013-01-01 14:43:00,
2013-01-01 08:48:00,32.5,31.4,29.44,North,3,6.4,10.7,96,0.00,,,0.00,WSDL version 426,2013-01-01 14:48:00,
2013-01-01 08:53:00,32.5,31.4,29.44,NNW,338,7.6,10.7,96,0.00,,,0.00,WSDL version 426,2013-01-01 14:53:00,
2013-01-01 08:58:00,32.4,31.3,29.44,North,350,8.4,11.0,96,0.00,,,0.00,WSDL version 426,2013-01-01 14:58:00,
2013-01-01 09:03:00,32.4,31.2,29.44,NNW,331,6.4,11.0,96,0.00,,,0.00,WSDL version 426,2013-01-01 15:03:00,
2013-01-01 09:08:00,32.4,31.2,29.44,NNW,340,6.6,9.2,96,0.00,,,0.00,WSDL version 426,2013-01-01 15:08:00,
2013-01-01 09:13:00,32.4,31.2,29.47,NNW,340,7.3,10.1,96,0.00,,,0.00,WSDL version 426,2013-01-01 15:13:00,
2013-01-01 09:18:00,32.4,31.2,29.47,NNW,333,5.6,10.1,96,0.00,,,0.00,WSDL version 426,2013-01-01 15:18:00,
2013-01-01 09:23:00,32.4,31.2,29.47,NNW,338,7.3,10.1,95,0.00,,,0.00,WSDL version 426,2013-01-01 15:23:00,
2013-01-01 09:28:00,32.4,30.9,29.47,NNW,335,5.4,10.1,94,0.00,,,0.00,WSDL version 426,2013-01-01 15:28:00,
2013-01-01 09:33:00,32.2,30.7,29.47,NNW,338,7.9,12.1,93,0.00,,,0.00,WSDL version 426,2013-01-01 15:33:00,
2013-01-01 09:38:00,32.2,30.4,29.47,NNW,335,8.7,12.1,93,0.00,,,0.00,WSDL version 426,2013-01-01 15:38:00,
2013-01-01 09:43:00,32.2,30.1,29.47,NNW,345,6.8,10.5,91,0.00,,,0.00,WSDL version 426,2013-01-01 15:43:00,
2013-01-01 09:48:00,32.2,29.9,29.47,North,8,5.6,9.8,91,0.00,,,0.00,WSDL version 426,2013-01-01 15:48:00,
2013-01-01 09:53:00,32.2,29.9,29.47,North,360,7.3,10.3,91,0.00,,,0.00,WSDL version 426,2013-01-01 15:53:00,
2013-01-01 09:58:00,32.3,30.0,29.47,NNE,15,6.2,10.3,91,0.00,,,0.00,WSDL version 426,2013-01-01 15:58:00,
2013-01-01 10:03:00,32.4,30.1,29.47,NNW,340,6.5,8.5,91,0.00,,,0.00,WSDL version 426,2013-01-01 16:03:00,
2013-01-01 10:08:00,32.5,30.2,29.47,North,353,5.5,8.7,91,0.00,,,0.00,WSDL version 426,2013-01-01 16:08:00,
2013-01-01 10:13:00,32.5,29.9,29.50,NNW,338,4.5,8.7,90,0.00,,,0.00,WSDL version 426,2013-01-01 16:13:00,
2013-01-01 10:18:00,32.5,29.9,29.50,NW,323,6.5,8.7,89,0.00,,,0.00,WSDL version 426,2013-01-01 16:18:00,
2013-01-01 10:23:00,32.5,29.5,29.50,NNW,344,5.9,10.5,89,0.00,,,0.00,WSDL version 426,2013-01-01 16:23:00,
2013-01-01 10:28:00,32.5,29.6,29.50,NW,323,6.6,10.5,89,0.00,,,0.00,WSDL version 426,2013-01-01 16:28:00,
2013-01-01 10:33:00,32.5,29.4,29.50,NNW,335,8.1,11.9,88,0.00,,,0.00,WSDL version 426,2013-01-01 16:33:00,
2013-01-01 10:38:00,32.5,29.3,29.50,NNW,332,6.4,11.9,88,0.00,,,0.00,WSDL version 426,2013-01-01 16:38:00,
2013-01-01 10:43:00,32.6,29.4,29.50,NNW,343,6.9,10.5,88,0.00,,,0.00,WSDL version 426,2013-01-01 16:43:00,
2013-01-01 10:48:00,32.8,29.6,29.50,North,354,5.6,9.6,88,0.00,,,0.00,WSDL version 426,2013-01-01 16:48:00,
2013-01-01 10:53:00,32.8,29.5,29.50,NNW,348,6.2,9.2,87,0.00,,,0.00,WSDL version 426,2013-01-01 16:53:00,
2013-01-01 10:58:00,32.9,29.3,29.50,NNW,346,6.6,8.7,86,0.00,,,0.00,WSDL version 426,2013-01-01 16:58:00,
2013-01-01 11:03:00,32.8,28.8,29.50,NNW,335,7.8,9.6,84,0.00,,,0.00,WSDL version 426,2013-01-01 17:03:00,
2013-01-01 11:08:00,32.7,28.3,29.50,NNW,330,8.3,10.7,83,0.00,,,0.00,WSDL version 426,2013-01-01 17:08:00,
2013-01-01 11:13:00,32.5,27.8,29.50,NW,321,8.3,11.4,82,0.00,,,0.00,WSDL version 426,2013-01-01 17:13:00,
2013-01-01 11:18:00,32.4,27.6,29.50,NW,320,8.3,12.3,82,0.00,,,0.00,WSDL version 426,2013-01-01 17:18:00,
2013-01-01 11:23:00,32.4,27.6,29.50,NW,323,6.8,12.3,82,0.00,,,0.00,WSDL version 426,2013-01-01 17:23:00,
2013-01-01 11:28:00,32.3,27.5,29.50,NNW,329,8.4,10.7,81,0.00,,,0.00,WSDL version 426,2013-01-01 17:28:00,
2013-01-01 11:33:00,32.4,27.5,29.50,NNW,338,6.9,10.7,82,0.00,,,0.00,WSDL version 426,2013-01-01 17:33:00,
2013-01-01 11:38:00,32.5,27.7,29.50,NNW,340,6.6,10.5,83,0.00,,,0.00,WSDL version 426,2013-01-01 17:38:00,
2013-01-01 11:43:00,32.5,27.9,29.47,NW,320,7.9,10.1,82,0.00,,,0.00,WSDL version 426,2013-01-01 17:43:00,
2013-01-01 11:48:00,32.3,27.5,29.47,North,349,8.2,12.1,82,0.00,,,0.00,WSDL version 426,2013-01-01 17:48:00,
2013-01-01 11:53:00,32.4,27.6,29.47,NNW,343,5.4,12.1,82,0.00,,,0.00,WSDL version 426,2013-01-01 17:53:00,
2013-01-01 11:58:00,32.4,27.6,29.47,NNW,329,7.0,9.8,82,0.00,,,0.00,WSDL version 426,2013-01-01 17:58:00,
2013-01-01 12:03:00,32.3,27.1,29.47,NW,320,7.1,9.8,80,0.00,,,0.00,WSDL version 426,2013-01-01 18:03:00,
2013-01-01 12:08:00,32.3,27.1,29.47,NNW,329,6.8,11.4,81,0.00,,,0.00,WSDL version 426,2013-01-01 18:08:00,
2013-01-01 12:13:00,32.3,27.3,29.50,NNW,338,6.2,11.4,82,0.00,,,0.00,WSDL version 426,2013-01-01 18:13:00,
2013-01-01 12:18:00,32.5,27.7,29.50,NNW,343,6.9,10.7,82,0.00,,,0.00,WSDL version 426,2013-01-01 18:18:00,
2013-01-01 12:23:00,32.5,27.7,29.50,NNW,338,6.9,10.7,82,0.00,,,0.00,WSDL version 426,2013-01-01 18:23:00,
2013-01-01 12:28:00,32.4,27.6,29.50,NNW,338,6.0,10.1,82,0.00,,,0.00,WSDL version 426,2013-01-01 18:28:00,
2013-01-01 12:33:00,32.4,27.6,29.50,NNW,340,8.0,11.0,82,0.00,,,0.00,WSDL version 426,2013-01-01 18:33:00,
2013-01-01 12:38:00,32.2,27.0,29.50,NNW,340,6.8,11.0,81,0.00,,,0.00,WSDL version 426,2013-01-01 18:38:00,
2013-01-01 12:43:00,32.2,27.0,29.50,NNW,343,7.4,10.1,81,0.00,,,0.00,WSDL version 426,2013-01-01 18:43:00,
2013-01-01 12:48:00,32.2,27.3,29.50,NNW,330,6.2,9.6,82,0.00,,,0.00,WSDL version 426,2013-01-01 18:48:00,
2013-01-01 12:53:00,32.1,27.5,29.50,NNW,335,8.0,11.0,82,0.00,,,0.00,WSDL version 426,2013-01-01 18:53:00,
2013-01-01 12:58:00,32.0,27.8,29.50,NNW,332,6.4,11.0,82,0.00,,,0.00,WSDL version 426,2013-01-01 18:58:00,
2013-01-01 13:03:00,31.9,27.7,29.50,NNW,348,7.2,11.0,82,0.00,,,0.00,WSDL version 426,2013-01-01 19:03:00,
2013-01-01 13:08:00,31.9,27.7,29.50,NNW,335,8.6,11.4,82,0.00,,,0.00,WSDL version 426,2013-01-01 19:08:00,
2013-01-01 13:13:00,31.8,27.6,29.47,North,353,5.8,11.4,82,0.00,,,0.00,WSDL version 426,2013-01-01 19:13:00,
2013-01-01 13:18:00,32.0,28.0,29.47,North,354,4.7,8.7,83,0.00,,,0.00,WSDL version 426,2013-01-01 19:18:00,
2013-01-01 13:23:00,32.0,28.0,29.47,NW,315,7.9,10.1,82,0.00,,,0.00,WSDL version 426,2013-01-01 19:23:00,
2013-01-01 13:28:00,31.9,27.4,29.47,NNW,328,6.2,10.1,81,0.00,,,0.00,WSDL version 426,2013-01-01 19:28:00,
2013-01-01 13:33:00,32.0,27.4,29.47,NNW,331,5.3,8.7,81,0.00,,,0.00,WSDL version 426,2013-01-01 19:33:00,
2013-01-01 13:38:00,32.0,27.5,29.47,NNW,346,6.7,10.7,81,0.00,,,0.00,WSDL version 426,2013-01-01 19:38:00,
2013-01-01 13:43:00,32.1,27.0,29.47,NW,326,7.8,10.7,79,0.00,,,0.00,WSDL version 426,2013-01-01 19:43:00,
2013-01-01 13:48:00,32.0,26.8,29.47,NNW,348,6.4,9.6,79,0.00,,,0.00,WSDL version 426,2013-01-01 19:48:00,
2013-01-01 13:53:00,32.1,26.5,29.47,North,352,6.3,9.6,79,0.00,,,0.00,WSDL version 426,2013-01-01 19:53:00,
2013-01-01 13:58:00,32.2,26.4,29.47,NNW,348,6.4,8.7,79,0.00,,,0.00,WSDL version 426,2013-01-01 19:58:00,
2013-01-01 14:03:00,32.4,26.7,29.47,NNW,333,6.7,10.1,79,0.00,,,0.00,WSDL version 426,2013-01-01 20:03:00,
2013-01-01 14:08:00,32.5,26.3,29.47,NNW,340,7.2,10.7,77,0.00,,,0.00,WSDL version 426,2013-01-01 20:08:00,
2013-01-01 14:13:00,32.7,26.3,29.47,NNW,330,6.7,10.7,77,0.00,,,0.00,WSDL version 426,2013-01-01 20:13:00,
2013-01-01 14:18:00,33.0,26.0,29.47,NNW,340,6.9,10.1,75,0.00,,,0.00,WSDL version 426,2013-01-01 20:18:00,
2013-01-01 14:23:00,33.2,26.0,29.47,North,355,5.1,10.3,75,0.00,,,0.00,WSDL version 426,2013-01-01 20:23:00,
2013-01-01 14:28:00,33.3,26.3,29.47,NW,325,6.9,10.3,75,0.00,,,0.00,WSDL version 426,2013-01-01 20:28:00,
2013-01-01 14:33:00,33.1,25.8,29.47,NNW,338,5.9,8.7,74,0.00,,,0.00,WSDL version 426,2013-01-01 20:33:00,
2013-01-01 14:38:00,33.1,25.8,29.47,NNW,338,5.9,7.8,75,0.00,,,0.00,WSDL version 426,2013-01-01 20:38:00,
2013-01-01 14:43:00,33.1,26.2,29.47,NNW,340,4.4,7.8,76,0.00,,,0.00,WSDL version 426,2013-01-01 20:43:00,
2013-01-01 14:48:00,33.1,26.3,29.47,NNW,345,5.0,7.2,76,0.00,,,0.00,WSDL version 426,2013-01-01 20:48:00,
2013-01-01 14:53:00,33.1,26.3,29.47,North,352,5.0,8.5,76,0.00,,,0.00,WSDL version 426,2013-01-01 20:53:00,
2013-01-01 14:58:00,33.1,26.3,29.47,NNW,338,5.5,8.5,76,0.00,,,0.00,WSDL version 426,2013-01-01 20:58:00,
2013-01-01 15:03:00,33.1,26.3,29.47,NNW,346,5.7,8.1,76,0.00,,,0.00,WSDL version 426,2013-01-01 21:03:00,
2013-01-01 15:08:00,33.1,26.5,29.47,NNW,343,6.0,9.4,76,0.00,,,0.00,WSDL version 426,2013-01-01 21:08:00,
2013-01-01 15:13:00,32.9,26.3,29.47,NNW,330,6.5,9.4,77,0.00,,,0.00,WSDL version 426,2013-01-01 21:13:00,
2013-01-01 15:18:00,32.7,25.9,29.47,NW,321,6.2,10.7,76,0.00,,,0.00,WSDL version 426,2013-01-01 21:18:00,
2013-01-01 15:23:00,32.6,25.9,29.47,NNW,340,7.3,11.0,76,0.00,,,0.00,WSDL version 426,2013-01-01 21:23:00,
2013-01-01 15:28:00,32.5,25.8,29.47,NNW,340,6.1,11.0,76,0.00,,,0.00,WSDL version 426,2013-01-01 21:28:00,
2013-01-01 15:33:00,32.5,25.6,29.47,NW,312,7.0,10.5,75,0.00,,,0.00,WSDL version 426,2013-01-01 21:33:00,
2013-01-01 15:38:00,32.5,25.6,29.47,NNW,343,4.9,10.5,76,0.00,,,0.00,WSDL version 426,2013-01-01 21:38:00,
2013-01-01 15:43:00,32.5,25.8,29.47,NNW,338,5.4,8.5,76,0.00,,,0.00,WSDL version 426,2013-01-01 21:43:00,
2013-01-01 15:48:00,32.7,26.0,29.47,NNW,340,4.8,9.6,76,0.00,,,0.00,WSDL version 426,2013-01-01 21:48:00,
2013-01-01 15:53:00,32.7,25.7,29.47,North,354,5.8,9.6,75,0.00,,,0.00,WSDL version 426,2013-01-01 21:53:00,
2013-01-01 15:58:00,32.5,25.5,29.47,NNW,338,5.3,8.7,75,0.00,,,0.00,WSDL version 426,2013-01-01 21:58:00,
2013-01-01 16:03:00,32.5,25.5,29.47,NNW,338,6.2,9.6,75,0.00,,,0.00,WSDL version 426,2013-01-01 22:03:00,
2013-01-01 16:08:00,32.5,25.6,29.47,NNW,343,5.9,9.6,76,0.00,,,0.00,WSDL version 426,2013-01-01 22:08:00,
2013-01-01 16:13:00,32.5,25.8,29.50,NNW,335,4.8,8.7,75,0.00,,,0.00,WSDL version 426,2013-01-01 22:13:00,
2013-01-01 16:18:00,32.5,25.5,29.50,NNW,335,5.8,8.1,75,0.00,,,0.00,WSDL version 426,2013-01-01 22:18:00,
2013-01-01 16:23:00,32.5,25.5,29.50,NNW,345,5.8,8.5,75,0.00,,,0.00,WSDL version 426,2013-01-01 22:23:00,
2013-01-01 16:28:00,32.5,25.5,29.47,North,349,4.5,8.5,75,0.00,,,0.00,WSDL version 426,2013-01-01 22:28:00,
2013-01-01 16:33:00,32.4,25.6,29.47,NNW,330,5.3,8.1,75,0.00,,,0.00,WSDL version 426,2013-01-01 22:33:00,
2013-01-01 16:38:00,32.2,24.9,29.47,NNW,335,7.0,9.8,73,0.00,,,0.00,WSDL version 426,2013-01-01 22:38:00,
2013-01-01 16:43:00,32.2,24.8,29.50,NNW,340,5.7,9.8,74,0.00,,,0.00,WSDL version 426,2013-01-01 22:43:00,
2013-01-01 16:48:00,32.2,24.9,29.50,NNW,338,4.7,8.5,75,0.00,,,0.00,WSDL version 426,2013-01-01 22:48:00,
2013-01-01 16:53:00,32.1,25.5,29.50,North,353,4.8,6.3,75,0.00,,,0.00,WSDL version 426,2013-01-01 22:53:00,
2013-01-01 16:58:00,32.0,25.8,29.50,NNW,348,6.5,7.6,75,0.00,,,0.00,WSDL version 426,2013-01-01 22:58:00,
2013-01-01 17:03:00,31.8,25.6,29.50,NNW,338,5.1,7.8,75,0.00,,,0.00,WSDL version 426,2013-01-01 23:03:00,
2013-01-01 17:08:00,31.8,25.8,29.50,NNW,343,5.1,7.8,76,0.00,,,0.00,WSDL version 426,2013-01-01 23:08:00,
2013-01-01 17:13:00,31.7,25.8,29.50,North,354,3.9,6.5,76,0.00,,,0.00,WSDL version 426,2013-01-01 23:13:00,
2013-01-01 17:18:00,31.6,25.7,29.50,North,358,3.4,6.0,76,0.00,,,0.00,WSDL version 426,2013-01-01 23:18:00,
2013-01-01 17:23:00,31.6,25.7,29.50,North,354,2.9,6.0,76,0.00,,,0.00,WSDL version 426,2013-01-01 23:23:00,
2013-01-01 17:28:00,31.8,25.8,29.50,NNW,333,4.2,6.5,76,0.00,,,0.00,WSDL version 426,2013-01-01 23:28:00,
2013-01-01 17:33:00,31.6,25.7,29.50,North,354,2.8,6.9,76,0.00,,,0.00,WSDL version 426,2013-01-01 23:33:00,
2013-01-01 17:38:00,31.6,25.7,29.50,NNW,347,3.3,6.9,76,0.00,,,0.00,WSDL version 426,2013-01-01 23:38:00,
2013-01-01 17:43:00,31.6,25.7,29.50,NNW,333,3.2,4.9,76,0.00,,,0.00,WSDL version 426,2013-01-01 23:43:00,
2013-01-01 17:48:00,31.6,25.7,29.50,NNW,343,3.7,5.8,76,0.00,,,0.00,WSDL version 426,2013-01-01 23:48:00,
2013-01-01 17:53:00,31.5,25.5,29.50,NNW,338,3.5,5.8,76,0.00,,,0.00,WSDL version 426,2013-01-01 23:53:00,
2013-01-01 17:58:00,31.5,25.8,29.50,North,352,3.2,4.7,77,0.00,,,0.00,WSDL version 426,2013-01-01 23:58:00,
2013-01-01 18:03:00,31.5,25.8,29.50,NNW,328,2.8,4.9,77,0.00,,,0.00,WSDL version 426,2013-01-02 00:03:00,
2013-01-01 18:08:00,31.5,25.8,29.50,NNW,330,2.8,4.9,77,0.00,,,0.00,WSDL version 426,2013-01-02 00:08:00,
2013-01-01 18:13:00,31.5,25.8,29.50,NNW,335,5.7,7.4,77,0.00,,,0.00,WSDL version 426,2013-01-02 00:13:00,
2013-01-01 18:18:00,31.5,25.8,29.50,NW,309,4.7,7.4,77,0.00,,,0.00,WSDL version 426,2013-01-02 00:18:00,
2013-01-01 18:23:00,31.5,26.1,29.50,NNW,332,3.4,6.3,78,0.00,,,0.00,WSDL version 426,2013-01-02 00:23:00,
2013-01-01 18:28:00,31.4,26.0,29.53,NNW,340,4.9,6.9,78,0.00,,,0.00,WSDL version 426,2013-01-02 00:28:00,
2013-01-01 18:33:00,31.3,25.9,29.53,NNW,335,4.6,7.2,78,0.00,,,0.00,WSDL version 426,2013-01-02 00:33:00,
2013-01-01 18:38:00,31.3,25.9,29.53,NNW,333,4.6,7.8,78,0.00,,,0.00,WSDL version 426,2013-01-02 00:38:00,
2013-01-01 18:43:00,31.1,25.5,29.53,NNW,335,4.7,7.8,77,0.00,,,0.00,WSDL version 426,2013-01-02 00:43:00,
2013-01-01 18:48:00,31.1,25.5,29.53,NNW,335,6.2,7.8,77,0.00,,,0.00,WSDL version 426,2013-01-02 00:48:00,
2013-01-01 18:53:00,31.1,25.3,29.53,NNW,333,5.4,8.1,76,0.00,,,0.00,WSDL version 426,2013-01-02 00:53:00,
2013-01-01 18:58:00,30.9,25.0,29.50,NNW,343,5.9,8.1,76,0.00,,,0.00,WSDL version 426,2013-01-02 00:58:00,
2013-01-01 19:03:00,30.9,25.0,29.50,North,352,5.5,7.8,76,0.00,,,0.00,WSDL version 426,2013-01-02 01:03:00,
2013-01-01 19:08:00,30.8,24.9,29.50,North,349,3.6,7.8,76,0.00,,,0.00,WSDL version 426,2013-01-02 01:08:00,
2013-01-01 19:13:00,30.7,24.8,29.50,North,353,3.9,6.5,76,0.00,,,0.00,WSDL version 426,2013-01-02 01:13:00,
2013-01-01 19:18:00,30.7,25.1,29.50,North,358,4.0,6.3,77,0.00,,,0.00,WSDL version 426,2013-01-02 01:18:00,
2013-01-01 19:23:00,30.7,25.1,29.50,North,357,4.4,6.3,77,0.00,,,0.00,WSDL version 426,2013-01-02 01:23:00,
2013-01-01 19:28:00,30.6,24.9,29.53,NNW,340,4.3,6.9,77,0.00,,,0.00,WSDL version 426,2013-01-02 01:28:00,
2013-01-01 19:33:00,30.6,24.9,29.53,North,354,4.3,6.9,77,0.00,,,0.00,WSDL version 426,2013-01-02 01:33:00,
2013-01-01 19:38:00,30.6,24.9,29.53,North,350,3.4,6.5,77,0.00,,,0.00,WSDL version 426,2013-01-02 01:38:00,
2013-01-01 19:43:00,30.6,24.9,29.53,North,355,3.8,6.5,77,0.00,,,0.00,WSDL version 426,2013-01-02 01:43:00,
2013-01-01 19:48:00,30.4,24.8,29.53,North,354,3.9,6.5,77,0.00,,,0.00,WSDL version 426,2013-01-02 01:48:00,
2013-01-01 19:53:00,30.4,25.0,29.53,NNW,345,4.0,6.0,78,0.00,,,0.00,WSDL version 426,2013-01-02 01:53:00,
2013-01-01 19:58:00,30.4,25.0,29.53,NNW,340,3.8,6.0,78,0.00,,,0.00,WSDL version 426,2013-01-02 01:58:00,
2013-01-01 20:03:00,30.4,25.0,29.53,NNW,345,4.3,6.9,78,0.00,,,0.00,WSDL version 426,2013-01-02 02:03:00,
2013-01-01 20:08:00,30.4,25.0,29.53,NNW,335,4.7,7.6,78,0.00,,,0.00,WSDL version 426,2013-01-02 02:08:00,
2013-01-01 20:13:00,30.4,24.8,29.53,NNW,348,4.2,7.6,77,0.00,,,0.00,WSDL version 426,2013-01-02 02:13:00,
2013-01-01 20:18:00,30.4,24.8,29.53,North,350,5.3,8.7,77,0.00,,,0.00,WSDL version 426,2013-01-02 02:18:00,
2013-01-01 20:23:00,30.3,24.7,29.53,North,3,4.8,8.7,77,0.00,,,0.00,WSDL version 426,2013-01-02 02:23:00,
2013-01-01 20:28:00,30.2,24.4,29.50,NNE,23,4.1,7.8,76,0.00,,,0.00,WSDL version 426,2013-01-02 02:28:00,
2013-01-01 20:33:00,30.0,24.1,29.50,North,6,3.9,6.3,76,0.00,,,0.00,WSDL version 426,2013-01-02 02:33:00,
2013-01-01 20:38:00,29.6,23.6,29.50,North,11,4.4,6.3,75,0.00,,,0.00,WSDL version 426,2013-01-02 02:38:00,
2013-01-01 20:43:00,29.3,23.0,29.50,North,354,4.4,6.3,74,0.00,,,0.00,WSDL version 426,2013-01-02 02:43:00,
2013-01-01 20:48:00,28.9,22.5,29.50,North,360,2.9,5.8,74,0.00,,,0.00,WSDL version 426,2013-01-02 02:48:00,
2013-01-01 20:53:00,28.6,22.2,29.50,North,358,3.0,5.8,74,0.00,,,0.00,WSDL version 426,2013-01-02 02:53:00,
2013-01-01 20:58:00,28.4,22.2,29.53,NNW,347,3.3,5.4,75,0.00,,,0.00,WSDL version 426,2013-01-02 02:58:00,
2013-01-01 21:03:00,28.2,22.0,29.53,North,350,2.9,4.3,75,0.00,,,0.00,WSDL version 426,2013-01-02 03:03:00,
2013-01-01 21:08:00,28.0,21.9,29.53,NNW,335,4.3,6.0,75,0.00,,,0.00,WSDL version 426,2013-01-02 03:08:00,
2013-01-01 21:13:00,27.9,21.8,29.53,NNW,338,4.6,6.3,75,0.00,,,0.00,WSDL version 426,2013-01-02 03:13:00,
2013-01-01 21:18:00,27.7,21.6,29.53,North,357,3.9,6.3,75,0.00,,,0.00,WSDL version 426,2013-01-02 03:18:00,
2013-01-01 21:23:00,27.6,21.5,29.53,North,355,3.2,6.0,75,0.00,,,0.00,WSDL version 426,2013-01-02 03:23:00,
2013-01-01 21:28:00,27.4,21.3,29.53,North,360,3.3,4.9,75,0.00,,,0.00,WSDL version 426,2013-01-02 03:28:00,
2013-01-01 21:33:00,27.2,21.1,29.53,North,357,3.0,6.3,75,0.00,,,0.00,WSDL version 426,2013-01-02 03:33:00,
2013-01-01 21:38:00,27.0,20.9,29.53,NNW,340,4.0,6.3,75,0.00,,,0.00,WSDL version 426,2013-01-02 03:38:00,
2013-01-01 21:43:00,26.9,20.8,29.50,North,354,3.4,5.4,75,0.00,,,0.00,WSDL version 426,2013-01-02 03:43:00,
2013-01-01 21:48:00,26.7,20.7,29.50,North,355,3.0,4.9,76,0.00,,,0.00,WSDL version 426,2013-01-02 03:48:00,
2013-01-01 21:53:00,26.5,20.7,29.50,North,352,2.7,4.3,76,0.00,,,0.00,WSDL version 426,2013-01-02 03:53:00,
2013-01-01 21:58:00,26.4,20.6,29.50,NNW,340,2.6,4.3,76,0.00,,,0.00,WSDL version 426,2013-01-02 03:58:00,
2013-01-01 22:03:00,26.2,20.5,29.50,NNW,333,3.3,4.3,76,0.00,,,0.00,WSDL version 426,2013-01-02 04:03:00,
2013-01-01 22:08:00,26.2,20.6,29.50,NNW,338,2.9,4.0,77,0.00,,,0.00,WSDL version 426,2013-01-02 04:08:00,
2013-01-01 22:13:00,26.1,20.5,29.53,NW,323,2.8,5.4,77,0.00,,,0.00,WSDL version 426,2013-01-02 04:13:00,
2013-01-01 22:18:00,26.1,20.5,29.53,NNW,335,3.6,5.4,77,0.00,,,0.00,WSDL version 426,2013-01-02 04:18:00,
2013-01-01 22:23:00,26.0,20.5,29.53,NNW,335,3.3,5.4,77,0.00,,,0.00,WSDL version 426,2013-01-02 04:23:00,
2013-01-01 22:28:00,25.9,20.4,29.53,NNW,340,3.7,5.4,77,0.00,,,0.00,WSDL version 426,2013-01-02 04:28:00,
2013-01-01 22:33:00,25.7,20.2,29.53,NNW,338,2.5,4.7,77,0.00,,,0.00,WSDL version 426,2013-01-02 04:33:00,
2013-01-01 22:38:00,25.6,20.0,29.53,NNW,338,2.9,4.0,77,0.00,,,0.00,WSDL version 426,2013-01-02 04:38:00,
2013-01-01 22:43:00,25.4,19.9,29.53,NNW,332,2.5,3.8,77,0.00,,,0.00,WSDL version 426,2013-01-02 04:43:00,
2013-01-01 22:48:00,25.3,19.8,29.53,WNW,298,2.7,3.6,77,0.00,,,0.00,WSDL version 426,2013-01-02 04:48:00,
2013-01-01 22:53:00,25.3,19.9,29.53,North,349,2.4,3.1,78,0.00,,,0.00,WSDL version 426,2013-01-02 04:53:00,
2013-01-01 22:58:00,25.2,19.9,29.53,NNW,338,2.1,3.4,78,0.00,,,0.00,WSDL version 426,2013-01-02 04:58:00,
2013-01-01 23:00:00,25.2,19.9,29.53,NNW,338,1.3,3.4,78,0.00,,,0.00,WSDL version 426,2013-01-02 05:00:00,
2013-01-01 23:02:00,25.1,19.9,29.53,NNW,338,2.2,3.4,78,0.00,,,0.00,WSDL version 426,2013-01-02 05:02:00,
2013-01-01 23:04:00,25.0,19.8,29.53,NNW,338,2.5,2.9,78,0.00,,,0.00,WSDL version 426,2013-01-02 05:04:00,
2013-01-01 23:05:00,25.0,19.8,29.53,NNW,338,2.5,2.9,78,0.00,,,0.00,WSDL version 426,2013-01-02 05:05:00,
2013-01-01 23:10:00,24.9,19.7,29.53,NW,304,2.5,2.9,78,0.00,,,0.00,WSDL version 426,2013-01-02 05:10:00,
2013-01-01 23:15:00,24.8,19.6,29.53,NW,323,3.0,4.0,79,0.00,,,0.00,WSDL version 426,2013-01-02 05:15:00,
2013-01-01 23:20:00,24.8,19.8,29.53,NW,308,2.4,4.0,79,0.00,,,0.00,WSDL version 426,2013-01-02 05:20:00,
2013-01-01 23:25:00,24.6,19.7,29.53,NW,323,3.0,4.3,79,0.00,,,0.00,WSDL version 426,2013-01-02 05:25:00,
2013-01-01 23:30:00,24.5,19.6,29.53,NNW,338,3.1,4.3,79,0.00,,,0.00,WSDL version 426,2013-01-02 05:30:00,
2013-01-01 23:35:00,24.4,19.5,29.53,NW,318,3.2,3.8,79,0.00,,,0.00,WSDL version 426,2013-01-02 05:35:00,
2013-01-01 23:40:00,24.4,19.4,29.53,NW,325,2.8,4.0,79,0.00,,,0.00,WSDL version 426,2013-01-02 05:40:00,
2013-01-01 23:45:00,24.3,19.3,29.53,NW,318,2.7,4.0,79,0.00,,,0.00,WSDL version 426,2013-01-02 05:45:00,
2013-01-01 23:50:00,24.2,19.3,29.53,NNW,335,2.7,4.0,79,0.00,,,0.00,WSDL version 426,2013-01-02 05:50:00,
2013-01-01 23:55:00,24.1,19.0,29.53,NNW,335,2.9,3.8,78,0.00,,,0.00,WSDL version 426,2013-01-02 05:55:00,